Torna al catalogo

GALAXY 34

AttivoComunicazioniGEO
NORAD 54027·PAYLOAD·🇺🇸 United States

Lanciato Oct 8, 2022 da Cape Canaveral Space Force Station

Loading…

TLE

AggiornatoSource: CelesTrak SupGP

Epoca: Sep 14, 2026, 00:00 UTC

1 54027C 22128B   26257.00000000  .00000160  00000+0  00000+0 0  2577
2 54027   0.0060 213.8590 0001467 304.9379  65.1876  1.00272027    12

Traccia GALAXY 34 in tempo reale con AllMySat

Download on the App Store